Time,TemperatureF,DewpointF,PressureIn,WindDirection,WindDirectionDegrees,WindSpeedMPH,WindSpeedGustMPH,Humidity,HourlyPrecipIn,Conditions,Clouds,dailyrainin,SoftwareType,DateUTC
2013-07-14 00:28:00,72.1,61.4,30.06,SE,135,0.0,0.0,69,0.00,,,0.00,Wunderground v.1.15,2013-07-14 05:28:00,
2013-07-14 00:58:00,72.1,61.4,30.07,SE,135,0.0,0.0,69,0.00,,,0.00,Wunderground v.1.15,2013-07-14 05:58:00,
2013-07-14 01:28:00,72.3,61.6,30.07,SE,135,1.0,3.0,69,0.00,,,0.00,Wunderground v.1.15,2013-07-14 06:28:00,
2013-07-14 01:58:00,70.9,61.8,30.08,ESE,117,2.0,2.0,73,0.00,,,0.00,Wunderground v.1.15,2013-07-14 06:58:00,
2013-07-14 02:28:00,70.9,62.2,30.08,ESE,117,0.0,0.0,74,0.00,,,0.00,Wunderground v.1.15,2013-07-14 07:28:00,
2013-07-14 02:58:00,70.9,62.6,30.08,ESE,117,0.0,1.0,75,0.00,,,0.00,Wunderground v.1.15,2013-07-14 07:58:00,
2013-07-14 03:28:00,70.3,62.7,30.07,ESE,117,0.0,0.0,77,0.00,,,0.00,Wunderground v.1.15,2013-07-14 08:28:00,
2013-07-14 03:58:00,69.9,62.4,30.07,ESE,115,2.0,2.0,77,0.00,,,0.00,Wunderground v.1.15,2013-07-14 08:58:00,
2013-07-14 04:28:00,69.4,62.2,30.08,ESE,116,1.0,1.0,78,0.00,,,0.00,Wunderground v.1.15,2013-07-14 09:28:00,
2013-07-14 04:58:00,68.9,62.1,30.08,ESE,119,2.0,2.0,79,0.00,,,0.00,Wunderground v.1.15,2013-07-14 09:58:00,
2013-07-14 05:28:00,68.3,61.9,30.08,SE,124,3.0,4.0,80,0.00,,,0.00,Wunderground v.1.15,2013-07-14 10:28:00,
2013-07-14 05:58:00,67.9,61.9,30.09,SE,125,1.0,1.0,81,0.00,,,0.00,Wunderground v.1.15,2013-07-14 10:58:00,
2013-07-14 06:28:00,68.3,61.9,30.10,SE,132,3.0,5.0,80,0.00,,,0.00,Wunderground v.1.15,2013-07-14 11:28:00,
2013-07-14 06:58:00,68.6,61.8,30.10,SE,134,4.0,4.0,79,0.00,,,0.00,Wunderground v.1.15,2013-07-14 11:58:00,
2013-07-14 07:28:00,69.9,62.0,30.11,SSE,157,4.0,6.0,76,0.00,,,0.00,Wunderground v.1.15,2013-07-14 12:28:00,
2013-07-14 07:58:00,71.5,62.0,30.11,ESE,113,4.0,4.0,72,0.00,,,0.00,Wunderground v.1.15,2013-07-14 12:58:00,
2013-07-14 08:28:00,73.2,62.0,30.11,ESE,115,3.0,3.0,68,0.00,,,0.00,Wunderground v.1.15,2013-07-14 13:28:00,
2013-07-14 08:58:00,74.6,62.5,30.11,SSE,153,3.0,4.0,66,0.00,,,0.00,Wunderground v.1.15,2013-07-14 13:58:00,
2013-07-14 09:28:00,75.6,62.6,30.11,SSE,148,4.0,9.0,64,0.00,,,0.00,Wunderground v.1.15,2013-07-14 14:28:00,
2013-07-14 09:58:00,76.7,62.7,30.12,SW,227,4.0,6.0,62,0.00,,,0.00,Wunderground v.1.15,2013-07-14 14:58:00,
2013-07-14 10:28:00,77.9,62.9,30.14,SW,229,4.0,4.0,60,0.00,,,0.00,Wunderground v.1.15,2013-07-14 15:28:00,
2013-07-14 10:58:00,79.0,63.0,30.14,SW,221,4.0,4.0,58,0.00,,,0.00,Wunderground v.1.15,2013-07-14 15:58:00,
2013-07-14 11:28:00,79.6,61.5,30.14,South,177,6.0,8.0,54,0.00,,,0.00,Wunderground v.1.15,2013-07-14 16:28:00,
2013-07-14 11:59:00,80.7,60.3,30.13,SSE,147,5.0,6.0,50,0.00,,,0.00,Wunderground v.1.15,2013-07-14 16:59:00,
2013-07-14 12:28:00,81.4,61.0,30.13,SSE,147,5.0,10.0,50,0.00,,,0.00,Wunderground v.1.15,2013-07-14 17:28:00,
2013-07-14 12:58:00,81.8,60.2,30.13,SW,232,7.0,7.0,48,0.00,,,0.00,Wunderground v.1.15,2013-07-14 17:58:00,
2013-07-14 13:28:00,82.6,60.3,30.12,SSE,153,6.0,6.0,47,0.00,,,0.00,Wunderground v.1.15,2013-07-14 18:28:00,
2013-07-14 13:58:00,82.4,60.7,30.12,South,171,4.0,4.0,48,0.00,,,0.00,Wunderground v.1.15,2013-07-14 18:58:00,
2013-07-14 14:28:00,82.8,62.3,30.12,SE,129,5.0,5.0,50,0.00,,,0.00,Wunderground v.1.15,2013-07-14 19:28:00,
2013-07-14 14:58:00,83.6,61.8,30.11,South,183,7.0,7.0,48,0.00,,,0.00,Wunderground v.1.15,2013-07-14 19:58:00,
2013-07-14 15:28:00,83.8,62.6,30.11,SSE,148,7.0,7.0,49,0.00,,,0.00,Wunderground v.1.15,2013-07-14 20:28:00,
2013-07-14 15:58:00,83.4,62.2,30.11,South,182,6.0,6.0,49,0.00,,,0.00,Wunderground v.1.15,2013-07-14 20:58:00,
2013-07-14 16:28:00,83.8,62.0,30.10,SSE,151,5.0,9.0,48,0.00,,,0.00,Wunderground v.1.15,2013-07-14 21:28:00,
2013-07-14 16:58:00,84.3,61.9,30.10,SSE,150,3.0,3.0,47,0.00,,,0.00,Wunderground v.1.15,2013-07-14 21:58:00,
2013-07-14 17:28:00,84.3,61.9,30.10,South,190,5.0,5.0,47,0.00,,,0.00,Wunderground v.1.15,2013-07-14 22:28:00,
2013-07-14 17:58:00,84.1,60.5,30.10,SSE,148,5.0,5.0,45,0.00,,,0.00,Wunderground v.1.15,2013-07-14 22:58:00,
2013-07-14 18:28:00,84.0,61.6,30.10,SSW,192,3.0,3.0,47,0.00,,,0.00,Wunderground v.1.15,2013-07-14 23:28:00,
2013-07-14 18:58:00,83.2,62.1,30.09,SSE,153,2.0,6.0,49,0.00,,,0.00,Wunderground v.1.15,2013-07-14 23:58:00,
2013-07-14 19:28:00,82.8,62.8,30.10,SSE,153,0.0,0.0,51,0.00,,,0.00,Wunderground v.1.15,2013-07-15 00:28:00,
2013-07-14 19:58:00,81.8,63.5,30.10,SSE,153,1.0,1.0,54,0.00,,,0.00,Wunderground v.1.15,2013-07-15 00:58:00,
2013-07-14 20:28:00,80.3,64.2,30.10,SSE,147,1.0,1.0,58,0.00,,,0.00,Wunderground v.1.15,2013-07-15 01:28:00,
2013-07-14 20:58:00,79.6,64.0,30.11,SE,145,0.0,0.0,59,0.00,,,0.00,Wunderground v.1.15,2013-07-15 01:58:00,
2013-07-14 21:28:00,78.5,64.9,30.12,SE,146,1.0,2.0,63,0.00,,,0.00,Wunderground v.1.15,2013-07-15 02:28:00,
2013-07-14 21:58:00,77.4,65.1,30.13,SE,145,1.0,2.0,66,0.00,,,0.00,Wunderground v.1.15,2013-07-15 02:58:00,
2013-07-14 22:28:00,75.8,64.9,30.13,SE,145,1.0,1.0,69,0.00,,,0.00,Wunderground v.1.15,2013-07-15 03:28:00,
2013-07-14 22:58:00,74.0,66.7,30.14,SE,145,0.0,0.0,78,0.00,,,0.00,Wunderground v.1.15,2013-07-15 03:58:00,
2013-07-14 23:28:00,73.0,66.1,30.14,SE,145,0.0,0.0,79,0.00,,,0.00,Wunderground v.1.15,2013-07-15 04:28:00,
2013-07-14 23:59:00,72.7,65.8,30.15,SE,145,0.0,0.0,79,0.00,,,0.00,Wunderground v.1.15,2013-07-15 04:59:00,